Miscellaneous Local Product
Issued by NWS Hastings, NE

Home | Current Version | Previous Version | Text Only | Print | Product List | Glossary Off
Versions: 1 2 3 4 5 6 7 8 9 10 11 12 13 14 15 16 17 18 19 20 21 22 23 24 25 26 27 28 29 30 31 32 33 34 35 36 37 38 39 40 41 42 43 44 45 46 47 48 49 50

000
AXUS43 KGID 010202
MISGRI

GID CWA HOURLY WEATHER ROUNDUP
NATIONAL WEATHER SERVICE HASTINGS NE
900 PM CDT FRI SEP 30 2016

NOTE: "FAIR" INDICATES FEW OR NO CLOUDS BELOW 12,000 FEET WITH NO
SIGNIFICANT WEATHER AND/OR OBSTRUCTIONS TO VISIBILITY.

...SOUTH CENTRAL NEBRASKA...

CITY           SKY/WX    TMP DP  RH WIND       PRES   REMARKS
GRAND ISLAND   CLOUDY    58  46  64 S3        30.16S
HASTINGS       PTCLDY    58  45  62 CALM      30.16S
KEARNEY        MOCLDY    57  41  54 S7        30.16R
ORD            MOCLDY    55  46  71 CALM      30.14F
YORK           PTCLDY    57  45  62 E6        30.16R
AURORA         CLOUDY    57  48  72 E6        30.15S
LEXINGTON      PTCLDY    59  47  63 SE6       30.16S
HOLDREGE       CLOUDY    57  45  62 SE3       30.16S
HEBRON         MOCLDY    57  48  73 CALM      30.14S

...NEBRASKA PANHANDLE...

CITY           SKY/WX    TMP DP  RH WIND       PRES   REMARKS
CHADRON        MOCLDY    67  46  47 S16G24    30.04S
ALLIANCE       PTCLDY    60  47  61 S8        30.09S
SCOTTSBLUFF    CLOUDY    56  48  74 E7        30.10S
SIDNEY         MOCLDY    62  47  57 SE10      30.14F

...WESTERN AND NORTH CENTRAL NEBRASKA...

CITY           SKY/WX    TMP DP  RH WIND       PRES   REMARKS
VALENTINE      MOCLDY    61  44  53 S9        30.11S
AINSWORTH      PTCLDY    59  47  64 SE8       30.13S
ONEILL         PTCLDY    58  45  60 SE5       30.15S
BROKEN BOW     MOCLDY    58  47  66 SE5       30.15S
IMPERIAL       CLOUDY    61  47  59 SE9       30.14S
NORTH PLATTE   PTCLDY    56  46  69 E7        30.14F
MCCOOK         CLOUDY    60  47  61 E7        30.14F

...EASTERN NEBRASKA...

CITY           SKY/WX    TMP DP  RH WIND       PRES   REMARKS
NORFOLK        PTCLDY    54  44  69 CALM      30.15S
SO SIOUX CITY  PTCLDY    62  49  62 E6        30.15S
TEKAMAH        CLOUDY    54  48  80 N6        30.15R
COLUMBUS       CLOUDY    52  39  62 CALM      30.16R
ALBION         MOCLDY    57  46  66 CALM      30.16S
OMAHA EPPLEY   CLOUDY    64  53  67 E7        30.15R
OFFUTT AFB     PTCLDY    60  54  80 SE2       30.14R
MILLARD        CLOUDY    64  53  66 CALM      30.15R
LINCOLN        CLOUDY    58  50  75 NW6       30.15S
NEBRASKA CITY  CLEAR     60  50  69 E10       30.15S
BEATRICE       PTCLDY    59  50  70 CALM      30.14R
FALLS CITY     CLEAR     59  54  83 E7        30.13R

...NORTHERN KANSAS...

CITY           SKY/WX    TMP DP  RH WIND       PRES   REMARKS
GOODLAND       PTCLDY    63  46  54 SE9       30.13R
HILL CITY      CLOUDY    57  49  74 E7        30.15S
NORTON         CLEAR     55  43  62 E5        30.15S
PHILLIPSBURG   CLEAR     57  46  67 E3        30.15S
SMITH CENTER   CLEAR     57  46  67 CALM      30.16R HAZE
BELOIT         CLEAR     55  48  76 CALM      30.13S
HAYS           PTCLDY    61  41  48 E8        30.14R
RUSSELL        PTCLDY    60  47  61 E8        30.13R
CONCORDIA      HAZE      59  49  69 S8        30.14R VSB 1
SALINA         PTCLDY    64  50  60 CALM      30.14R
TOPEKA         CLOUDY    58  53  84 CALM      30.12R



USA.gov is the U.S. government's official web portal to all federal, state and local government web resources and services.